GFSSE_250_rhum_102.txt.gz
RH
16 17 18 19 18 17 16 17 18 18 19 18 18 16 16 20 22 20 22 24 24 21 19 20 18 18 18 18 20 19 19 18 14 12 10 12 10 10 11 14 19 27 17
19 21 21 22 21 20 19 16 14 17 18 22 25 25 26 31 34 30 28 30 30 31 28 27 24 23 21 22 24 23 22 20 18 16 15 14 15 16 17 15 17 18 21
23 26 24 22 21 22 24 23 18 16 18 22 28 32 32 34 37 39 36 36 37 37 36 37 32 29 29 27 25 25 28 29 25 22 22 24 23 19 18 30 30 37 31
28 31 29 27 28 26 26 25 29 31 22 19 23 25 29 31 36 37 37 34 30 29 30 30 29 28 27 28 32 33 35 34 33 30 32 30 33 39 48 53 52 48 49
37 39 34 33 28 27 26 25 26 29 31 30 32 32 30 33 31 32 32 30 32 30 27 26 26 25 22 24 28 37 37 35 34 35 38 51 68 55 68 64 60 65 68
49 40 36 35 33 27 25 27 27 28 27 28 31 35 41 48 34 34 33 35 42 32 31 35 32 31 28 20 20 31 38 40 41 36 36 100 83 86 72 71 61 73 62
52 52 62 53 43 34 29 27 37 35 31 31 33 28 30 33 37 47 39 33 37 41 40 42 48 35 29 24 24 28 35 48 42 36 91 100 91 100 74 76 79 65 50
46 68 57 40 35 38 46 45 40 45 48 50 49 46 38 38 38 34 35 42 39 38 74 56 47 37 30 27 32 38 38 56 48 38 93 100 100 99 70 76 65 64 45
34 27 37 38 44 49 56 52 45 52 60 64 67 63 51 44 44 40 41 37 42 40 48 52 44 42 45 85 39 35 28 33 37 45 70 92 100 98 76 96 73 66 55
43 37 38 36 40 52 59 61 44 41 35 38 39 75 70 69 59 58 64 69 72 68 57 38 49 42 48 48 54 32 27 25 24 31 62 95 100 99 66 97 99 62 65
55 65 58 43 72 78 86 76 52 44 44 42 43 42 58 92 90 75 61 60 53 76 77 59 61 51 43 57 76 52 68 51 39 44 78 100 100 83 72 96 100 84 59
53 57 48 86 88 95 88 64 56 65 50 46 47 45 49 73 76 54 53 48 66 72 91 72 75 56 43 82 94 44 86 99 72 72 92 100 100 70 68 97 100 94 67
60 52 52 73 100 99 78 69 66 75 62 64 68 61 64 60 52 52 59 57 59 58 89 72 71 54 45 67 96 74 83 81 75 68 100 100 100 73 94 78 100 100 85
69 71 84 100 100 84 64 63 70 79 77 82 87 73 82 73 80 61 54 53 52 52 74 90 75 71 53 50 73 74 85 91 62 67 100 100 100 100 85 88 100 100 77
90 91 96 81 84 79 74 83 83 91 80 77 73 100 100 98 94 85 62 60 71 65 65 99 76 72 68 52 82 80 73 84 62 47 100 100 98 97 86 100 100 100 84
74 81 91 99 97 90 94 100 94 89 84 80 70 69 71 98 100 93 69 52 57 66 65 99 84 71 75 77 84 91 89 71 63 42 89 100 91 100 100 100 100 96 92
76 93 100 100 97 100 100 100 95 92 95 89 78 67 76 83 82 86 72 65 55 66 68 84 92 77 77 71 78 100 95 76 42 26 56 100 87 100 99 72 79 100 68
58 69 87 86 89 93 94 95 92 92 98 99 86 77 85 100 99 77 70 59 56 59 66 98 100 88 84 79 69 98 81 67 36 26 28 100 80 100 97 100 100 95 56
55 61 76 91 100 100 100 98 94 100 100 100 89 74 81 81 76 53 64 67 54 62 75 89 100 91 100 93 84 84 60 43 34 23 94 100 93 97 81 100 90 75 65
61 62 65 70 78 80 98 100 98 89 100 98 81 73 67 68 91 35 48 60 55 60 74 92 94 100 100 88 90 78 44 38 28 51 100 100 96 100 98 83 100 100 94
59 63 66 72 71 73 68 67 66 80 79 74 72 66 56 47 48 24 33 40 48 50 64 68 91 100 100 80 78 71 47 36 24 100 100 100 100 89 100 67 100 100 85
60 66 67 58 56 61 63 61 70 72 66 55 45 40 44 44 24 24 28 32 36 49 67 67 92 100 100 78 82 77 52 33 42 100 100 100 100 100 100 100 89 100 100
76 84 96 74 66 76 68 61 49 46 49 43 31 22 25 25 16 25 29 27 34 46 63 77 100 100 100 80 65 56 41 30 100 100 100 100 100 100 100 92 63 100 72
75 84 75 59 56 52 50 37 32 29 20 16 16 16 14 14 16 26 24 28 41 57 68 93 100 100 98 74 53 53 40 30 100 100 100 100 100 100 100 100 100 100 68
64 53 44 43 46 44 28 17 17 15 13 13 11 10 10 12 12 32 36 97 100 81 80 92 100 100 93 77 60 48 32 34 100 100 100 100 100 100 100 93 100 93 58
47 38 33 34 33 22 13 12 14 12 11 10 10 10 18 15 22 34 67 88 81 92 100 100 100 100 99 76 54 46 46 47 70 100 100 100 100 100 100 100 98 86 68

GFSSE_250_rhum_105.txt.gz
RH
13 13 15 15 16 17 18 18 19 19 19 19 19 17 17 19 19 18 19 22 23 25 26 26 24 23 22 20 18 16 16 15 15 13 11 11 11 11 10 11 12 40 47
12 12 13 15 16 17 18 18 18 21 22 24 24 27 23 22 26 27 30 35 36 36 39 39 35 34 31 26 22 20 17 18 18 17 15 16 16 21 19 16 29 53 35
20 18 15 17 18 17 18 19 18 21 22 24 25 20 20 25 31 32 38 38 35 38 39 41 39 34 33 29 27 23 23 23 20 17 19 20 23 22 26 23 27 32 51
28 25 25 26 29 28 24 24 23 21 22 23 24 24 25 33 39 43 39 29 23 25 29 36 32 31 30 28 26 22 20 19 19 21 20 23 26 31 47 28 29 55 61
31 34 32 32 34 33 33 32 33 27 24 24 25 25 24 26 27 33 45 53 41 35 27 31 33 32 31 32 33 32 28 24 20 20 20 27 37 45 40 62 47 68 72
35 38 42 37 37 38 35 47 39 32 29 33 39 37 30 26 27 30 30 43 54 50 44 39 44 42 40 28 30 36 33 26 22 20 23 28 43 41 90 96 82 69 68
31 29 29 35 44 44 51 48 34 34 31 36 39 40 44 40 38 44 38 36 34 40 47 42 46 42 48 36 36 31 28 26 26 25 27 35 44 80 100 95 83 66 84
38 36 37 47 37 54 55 42 31 32 45 49 50 42 36 35 36 38 43 46 43 44 44 45 51 50 44 45 37 33 34 49 38 35 37 42 47 58 100 100 79 94 93
33 33 32 39 42 39 39 32 35 34 51 56 70 58 48 43 36 35 62 74 61 61 60 55 52 54 50 46 48 34 38 39 48 39 44 35 52 41 94 100 83 96 82
43 50 56 43 39 40 40 41 39 63 73 86 78 63 48 40 43 43 40 65 77 82 78 85 61 60 46 57 62 52 41 58 62 47 41 25 29 46 95 93 89 100 86
47 47 60 58 47 46 44 48 56 75 75 83 66 45 40 48 50 48 48 43 45 86 94 75 80 76 50 57 51 46 42 100 94 81 71 42 52 61 100 60 76 93 100
51 62 65 73 58 55 53 51 47 64 95 90 53 52 50 52 60 64 60 53 52 55 49 46 48 50 68 53 59 69 56 96 89 71 100 87 93 96 100 81 88 100 100
52 51 55 59 59 66 66 60 59 99 100 81 64 57 61 70 68 58 63 75 64 67 69 52 45 42 43 46 64 53 56 100 98 72 100 80 86 99 100 97 99 100 100
42 51 50 58 62 67 68 91 100 88 80 85 77 60 74 58 60 69 70 89 84 77 76 70 56 53 61 68 65 56 47 98 100 73 82 90 78 100 95 100 77 87 100
48 46 53 57 54 54 68 79 86 76 85 99 96 90 92 86 71 66 79 75 81 99 90 84 81 63 74 67 66 84 60 80 100 98 96 77 62 100 100 100 58 100 100
44 50 60 65 63 52 50 55 94 100 100 98 88 100 100 100 95 74 78 86 87 100 92 63 62 64 66 67 66 84 65 90 100 100 84 60 61 100 98 84 74 100 100
41 45 57 58 60 67 66 64 74 76 90 92 98 90 100 100 100 100 100 100 86 65 67 59 50 52 74 71 78 69 80 100 95 100 71 59 66 100 89 76 100 100 100
46 43 51 71 79 79 72 61 57 66 81 93 100 100 100 100 100 100 100 100 97 70 69 60 52 49 67 65 69 73 74 91 100 99 61 68 52 94 98 56 76 100 100
51 48 46 53 62 78 75 72 76 84 88 95 97 100 100 100 100 100 100 100 100 69 68 59 57 58 75 66 67 75 64 95 97 93 67 53 36 60 100 78 78 100 100
50 51 54 53 54 58 62 59 72 80 89 91 100 100 100 97 95 99 100 93 82 54 57 63 51 65 86 88 74 77 78 80 98 94 65 46 30 29 81 100 100 100 100
41 43 46 49 45 47 50 58 59 68 74 66 72 84 82 96 100 88 85 71 68 51 62 55 65 66 88 83 65 76 82 74 81 81 45 38 28 32 73 79 100 100 100
39 47 50 45 51 55 67 86 86 84 78 83 100 100 100 98 84 67 54 47 33 40 41 37 67 58 71 83 70 82 92 94 72 72 49 33 27 100 86 100 100 100 100
45 44 41 47 66 79 75 70 65 68 82 90 85 66 66 64 56 59 46 30 28 25 25 29 47 52 55 68 70 96 92 73 67 66 54 31 100 100 88 100 100 100 100
48 41 39 45 61 65 57 46 44 52 58 46 40 36 37 25 29 36 30 26 19 16 26 31 46 43 51 59 72 100 97 78 68 54 38 59 100 100 92 100 100 100 100
50 46 42 46 57 43 48 48 46 47 41 30 23 19 23 23 16 14 13 14 13 20 27 36 57 47 51 68 74 92 91 92 59 48 38 74 100 100 100 100 100 100 99
54 51 49 48 44 38 39 38 38 32 20 14 12 12 12 19 13 12 11 11 16 24 38 66 100 65 59 68 61 88 87 82 67 60 54 100 100 100 100 100 100 100 100

GFSSE_250_rhum_111.txt.gz
RH
12 13 12 12 12 12 12 13 13 14 13 13 12 12 13 13 13 13 14 14 14 13 13 13 13 12 13 13 12 12 11 14 12 10 9 9 18 14 12 22 21 21 14
16 14 14 12 11 10 10 10 10 11 13 13 12 13 15 15 17 20 17 17 17 15 14 14 14 13 14 14 15 14 13 13 14 11 11 13 17 43 98 97 78 52 35
22 17 20 16 15 16 16 15 15 14 15 18 20 19 21 20 19 21 22 20 18 17 17 16 16 16 16 17 18 21 22 21 22 18 13 16 30 100 90 55 85 90 91
27 23 24 23 23 22 22 22 23 21 22 23 24 27 29 24 25 25 24 23 23 23 22 20 20 19 18 19 21 25 30 34 29 25 20 42 90 100 100 69 93 97 100
28 26 26 26 27 27 27 30 31 30 29 30 31 33 38 33 30 28 26 25 26 34 29 26 26 27 26 23 23 28 35 38 31 29 37 69 90 100 97 97 100 100 100
36 40 37 31 31 32 32 34 36 37 34 34 36 36 35 39 37 32 32 41 40 43 35 31 29 25 26 35 33 32 34 38 29 26 61 79 100 100 90 100 100 100 100
37 49 53 52 36 30 28 30 31 30 31 30 31 41 38 41 33 29 42 50 56 49 49 43 34 31 26 27 29 37 49 42 35 28 39 77 98 100 87 93 100 100 100
46 54 60 60 52 36 33 37 37 34 35 36 34 33 34 35 35 35 39 50 67 57 55 40 38 39 38 32 29 27 35 52 47 35 71 83 100 100 100 99 100 100 94
82 74 66 60 48 40 41 40 38 41 42 42 44 47 48 45 42 42 47 64 66 62 54 42 42 48 48 36 34 31 34 44 48 37 63 69 77 100 94 84 89 87 65
95 98 67 56 53 50 50 48 40 35 36 38 46 50 55 55 43 47 54 68 80 86 79 53 47 51 55 48 38 36 37 45 53 41 43 59 55 100 96 100 72 87 72
86 69 69 66 63 58 43 36 33 33 34 37 42 49 60 61 56 58 61 55 88 100 77 74 68 55 59 49 46 38 39 39 43 46 36 53 57 80 90 100 100 100 66
55 81 57 65 72 70 57 54 56 49 42 40 43 46 57 52 49 48 58 83 100 89 73 100 76 98 72 51 54 47 36 36 47 43 39 51 52 71 72 100 99 88 75
67 87 100 100 99 86 77 80 75 59 47 37 33 40 58 60 69 78 87 73 57 61 96 100 83 99 63 65 57 66 51 38 42 48 44 53 78 81 74 87 93 96 97
72 45 66 62 52 55 56 81 78 75 82 72 62 66 84 94 100 100 100 85 79 100 100 100 81 68 72 100 84 72 63 80 41 46 45 56 73 83 70 81 100 100 100
79 52 55 58 45 42 45 43 48 56 53 66 73 66 92 100 100 100 100 97 100 90 77 61 52 89 98 84 100 76 61 76 65 50 52 54 73 92 86 81 100 100 100
96 66 51 50 64 61 54 42 34 46 61 65 74 59 81 100 100 98 100 100 79 52 52 54 99 91 62 99 91 99 62 74 66 61 45 67 90 100 98 81 100 100 100
64 100 100 98 89 77 64 55 42 47 40 51 52 65 77 93 100 100 95 54 81 63 52 46 50 69 60 78 100 91 57 58 56 65 51 53 78 100 100 82 100 100 100
51 47 57 58 54 62 73 66 53 36 36 46 41 44 53 72 84 100 78 76 56 61 52 43 40 51 53 51 50 54 56 61 50 49 49 50 61 80 89 74 92 100 100
82 72 69 56 59 58 45 63 56 45 36 42 42 46 56 46 43 61 55 51 45 48 47 59 61 60 53 49 69 92 100 97 78 56 41 43 54 80 77 78 82 100 100
94 80 76 68 54 56 49 42 50 50 39 41 42 40 36 48 56 53 69 75 74 65 70 62 64 51 39 52 100 100 76 84 100 91 48 39 43 66 83 76 83 98 100
90 75 74 75 58 62 53 50 49 51 47 48 48 47 42 41 40 42 42 41 48 38 38 34 42 60 55 85 100 91 100 92 100 100 72 36 42 58 96 77 89 77 96
68 64 68 80 73 66 65 63 63 54 50 45 41 38 37 36 34 33 38 40 36 38 51 63 62 77 100 100 100 100 100 100 100 100 94 42 37 42 77 88 63 72 95
55 56 71 78 75 70 64 64 64 60 56 51 45 41 40 40 36 35 37 42 43 38 68 68 67 99 100 100 98 76 97 100 100 100 100 62 35 42 60 93 68 70 83
40 38 41 43 68 71 65 65 65 64 62 55 52 45 40 38 38 36 32 27 50 63 62 73 71 100 100 100 93 85 100 100 100 98 100 100 47 48 62 98 67 59 68
36 41 37 43 47 63 75 70 60 57 56 58 51 42 37 38 35 33 30 28 30 55 70 69 81 90 100 100 100 100 91 100 100 100 100 72 35 45 59 93 72 52 46
31 32 33 37 39 41 49 56 51 51 49 51 48 44 37 38 35 31 28 27 32 29 68 82 98 86 57 68 96 95 94 77 93 100 97 38 31 40 56 75 62 52 44

GFSSE_250_rhum_114.txt.gz
RH
12 12 12 12 12 12 13 12 14 14 13 12 12 11 11 11 11 11 12 12 12 12 12 12 12 13 13 13 12 11 11 10 9 9 10 14 20 28 39 28 48 58 50
17 16 14 14 13 12 12 12 12 11 11 12 13 13 14 16 15 14 15 14 14 14 16 15 15 17 16 15 15 15 14 13 12 13 13 11 21 35 34 60 79 67 74
22 20 20 17 15 16 17 16 16 17 17 17 17 18 19 21 22 19 20 19 20 23 20 21 22 21 19 19 18 17 16 15 15 16 14 16 27 70 68 94 82 100 81
35 25 22 22 20 19 20 21 22 22 22 22 22 24 25 25 26 26 25 24 29 28 26 29 31 29 29 26 23 21 20 18 19 18 17 21 46 82 100 87 90 92 85
43 36 29 26 27 26 24 24 27 29 30 30 30 31 32 31 29 29 30 32 35 31 32 38 37 38 37 34 26 23 22 22 23 20 24 24 39 86 100 82 74 73 88
47 50 46 36 36 38 38 30 26 25 25 28 29 30 30 29 29 29 32 36 36 34 36 41 41 45 40 37 35 31 27 25 25 22 23 23 33 97 94 99 86 84 77
69 74 64 62 46 42 44 43 38 31 30 35 36 34 35 34 31 32 32 36 38 36 35 41 47 57 53 43 36 31 30 31 28 23 21 21 32 90 98 100 100 78 74
57 70 75 85 71 48 42 42 47 40 39 38 35 36 36 38 39 36 36 39 38 41 47 51 59 73 74 56 43 42 37 35 35 28 26 23 33 74 98 100 100 66 61
53 61 78 83 63 60 53 57 60 48 46 49 44 34 30 33 36 38 38 39 43 46 57 62 71 69 91 68 53 45 41 36 38 34 29 24 30 64 99 100 100 100 100
46 51 73 75 68 70 72 60 56 54 53 46 36 34 39 37 36 35 38 47 53 52 60 65 57 84 86 82 71 75 52 45 44 45 32 27 26 42 83 100 100 100 100
54 48 53 79 86 83 72 70 63 61 58 47 52 58 56 45 41 40 37 43 49 54 61 64 77 100 69 93 96 74 58 53 55 43 37 32 28 34 52 97 98 100 100
45 41 45 38 70 70 63 66 84 88 83 75 72 74 68 58 45 36 37 48 52 56 71 80 98 69 56 99 92 62 53 89 71 82 36 35 33 36 51 73 100 100 100
38 46 70 72 70 73 93 84 63 56 51 50 56 69 61 60 68 67 58 64 77 73 81 99 95 81 100 91 72 49 64 100 66 98 49 36 33 35 66 77 100 100 100
96 89 88 100 100 100 100 80 57 50 46 43 38 38 43 48 48 61 69 62 72 76 82 100 100 100 100 86 60 52 100 60 100 83 60 43 36 42 65 78 99 100 100
100 100 100 100 100 100 97 98 92 70 55 55 65 56 59 80 70 87 86 74 96 92 84 81 94 95 86 57 67 92 68 60 70 90 70 48 47 74 59 72 82 100 100
100 100 96 99 98 95 81 96 100 90 81 86 98 82 84 81 81 100 100 100 100 100 100 100 88 86 68 60 58 71 53 52 63 58 55 61 49 63 60 62 75 100 100
98 100 100 100 100 97 72 86 92 88 78 98 100 89 76 86 100 100 100 100 100 97 83 95 77 55 56 60 56 46 47 42 39 55 65 81 82 43 38 57 65 94 100
53 62 100 100 100 100 84 71 68 68 63 56 50 57 78 83 65 84 100 100 100 100 88 100 90 62 46 34 32 34 37 41 45 71 100 73 85 88 34 51 65 78 100
61 50 54 97 100 79 74 94 92 86 57 49 42 48 54 55 64 56 59 82 98 100 100 100 100 98 80 65 48 47 56 54 54 98 99 90 73 86 75 36 66 61 98
67 66 57 68 90 83 86 71 81 87 62 56 44 45 41 41 42 50 30 36 47 67 74 97 100 99 86 94 82 92 100 100 100 100 100 100 80 87 84 50 44 68 82
93 89 74 63 67 78 70 77 82 80 66 64 60 53 41 47 44 42 33 41 31 24 47 52 58 82 78 100 100 100 100 100 100 100 100 100 83 92 93 68 36 66 74
100 99 89 74 63 64 76 83 74 71 60 54 69 63 53 45 44 45 46 41 40 37 34 44 65 72 74 70 84 94 87 99 100 100 100 100 80 100 100 69 33 44 81
60 72 96 81 67 59 56 55 56 53 54 51 56 65 63 52 51 48 48 46 41 34 30 28 35 62 86 94 69 95 82 98 93 100 100 86 76 100 100 100 56 29 62
23 34 56 95 65 66 57 54 55 54 53 52 53 56 69 62 57 50 50 50 43 37 30 26 22 57 84 100 100 100 100 100 100 100 100 93 68 93 87 94 80 37 36
14 19 25 33 42 51 61 63 60 61 56 60 70 68 69 67 65 58 48 50 46 44 39 30 26 26 61 83 100 100 100 100 100 100 100 96 81 51 60 90 96 57 35
17 15 17 26 37 47 53 64 70 72 64 52 62 64 63 63 60 56 51 44 45 41 39 34 27 25 27 37 71 94 100 100 100 100 100 100 94 60 56 80 67 73 45

GFSSE_250_rhum_117.txt.gz
RH
17 18 17 16 14 14 12 12 12 12 11 12 12 12 11 12 11 12 12 12 11 11 11 11 12 14 15 15 14 15 15 15 15 14 13 13 13 13 13 21 39 38 41
31 25 20 18 18 18 16 15 14 13 13 12 12 12 13 14 16 16 16 18 18 18 19 18 21 19 19 18 17 17 17 16 15 15 15 14 14 15 21 27 60 50 50
36 37 30 20 19 20 20 18 20 19 18 18 17 15 17 20 21 21 22 22 22 23 23 25 25 24 24 25 22 21 24 22 19 16 17 16 16 26 38 43 67 72 84
63 47 31 22 25 22 21 20 19 22 23 24 23 23 22 23 24 25 24 25 23 26 27 30 28 27 26 26 28 27 24 22 21 18 18 17 18 26 30 75 86 92 81
81 86 63 43 34 31 27 24 25 23 23 24 23 23 23 24 26 26 26 26 26 27 27 28 30 30 32 32 34 35 35 30 26 20 21 19 20 31 51 82 100 100 79
52 58 67 50 40 37 36 30 31 32 31 30 28 28 30 31 31 29 29 29 29 30 28 29 34 34 34 34 40 45 43 41 34 27 23 22 24 24 27 33 100 100 81
74 59 46 52 50 39 40 41 38 35 39 41 38 34 36 36 34 33 32 32 34 34 34 35 36 35 34 38 42 51 52 53 42 32 29 30 28 23 23 33 88 100 76
71 72 53 37 52 54 47 52 49 43 40 43 46 41 41 45 41 32 30 32 33 36 34 36 38 37 36 42 48 50 71 63 46 40 36 37 32 25 24 27 84 100 91
38 49 42 47 45 58 52 52 60 63 57 52 53 46 42 43 44 34 39 43 37 34 36 34 36 37 38 47 49 52 71 69 55 49 42 43 43 30 26 25 63 100 91
44 38 48 44 54 57 60 58 60 75 77 62 58 50 50 51 41 48 53 48 40 38 36 36 39 43 41 41 50 63 71 81 80 60 49 72 53 45 30 26 34 91 100
48 55 54 62 78 72 60 65 91 89 83 69 60 58 65 58 57 64 59 57 54 44 37 39 53 51 54 60 57 60 55 93 68 59 60 69 72 55 37 30 31 67 99
94 66 62 50 59 59 72 70 68 72 78 76 78 87 94 68 48 48 57 53 53 60 59 54 63 72 71 74 68 72 73 63 60 52 54 68 65 57 38 66 40 57 100
100 100 100 97 77 78 84 84 87 89 93 94 100 82 52 44 39 34 36 37 41 45 50 61 66 74 79 80 76 70 72 70 57 47 43 54 51 46 39 39 38 67 94
50 100 100 100 100 100 100 99 98 100 100 100 99 79 74 63 49 50 62 60 58 62 77 76 72 73 76 82 87 78 66 59 63 47 41 45 46 43 42 37 69 80 96
75 67 65 100 100 100 100 97 100 100 95 100 100 99 100 86 80 77 97 90 78 64 88 82 93 95 89 89 92 83 75 57 46 45 44 44 44 44 50 41 60 78 93
30 36 89 96 100 100 100 100 93 100 95 92 93 91 99 96 98 100 100 83 76 60 74 99 100 100 100 99 98 98 81 65 45 43 47 46 42 61 70 58 42 56 89
28 32 73 73 100 100 100 100 100 99 100 87 83 78 90 97 100 100 82 64 68 94 89 100 100 93 94 100 100 99 83 77 76 60 53 44 43 68 77 68 46 31 51
29 32 67 84 68 99 100 97 100 100 100 100 80 76 83 69 98 99 100 100 100 92 89 100 100 97 100 100 100 90 94 95 100 94 97 92 89 100 99 81 61 61 38
33 30 53 95 96 77 73 62 66 97 100 100 100 75 65 70 74 76 89 100 100 82 92 100 100 100 98 89 100 88 96 100 100 100 100 99 100 100 100 100 67 52 49
43 42 30 74 100 100 91 75 78 70 100 100 100 99 80 53 45 49 56 70 78 64 65 99 100 90 74 100 96 100 94 100 100 100 100 100 98 100 100 100 96 61 47
30 33 41 44 89 100 100 99 81 75 70 82 87 90 89 70 58 41 37 49 68 70 60 77 71 86 78 100 99 100 100 90 72 88 100 100 100 100 100 94 100 79 50
16 18 22 36 42 93 100 100 88 77 76 81 96 90 90 91 76 60 39 39 39 33 38 50 62 64 69 79 81 86 100 100 81 85 96 74 93 100 100 100 85 97 62
10 11 13 18 34 38 55 78 72 82 77 73 72 73 85 90 89 72 54 46 40 40 35 32 35 31 26 45 33 68 86 99 74 86 81 98 97 81 100 100 100 100 90
10 12 12 15 18 25 34 32 44 60 64 62 77 68 61 60 61 60 46 48 50 40 36 36 34 34 32 29 32 32 64 65 84 86 100 98 100 100 100 100 100 94 96
10 11 12 14 18 26 32 31 34 45 49 56 67 73 62 56 51 48 47 48 56 63 51 46 42 34 34 26 27 36 59 72 92 100 95 100 100 100 100 100 99 90 100
10 11 15 13 17 20 24 27 33 42 49 54 70 74 64 72 60 52 56 57 55 64 66 54 54 41 42 31 23 24 27 43 74 85 99 100 100 100 100 100 100 100 100